Wind_Speed
53 49 61 60 53 47 17 31 29 33 27 16 22 27 26 27 21 16 16 18 20 24 21 21 22 24 24 23 21 18 15 11 9 10 11 11 7 7 9 12 16 19 23 27
44 64 59 51 48 46 38 26 28 15 14 19 20 23 25 27 22 21 20 19 20 15 22 25 24 26 26 26 24 21 20 15 13 11 9 10 10 13 14 14 17 20 22 26
50 26 51 48 45 44 46 40 26 21 21 18 18 24 24 29 27 26 25 22 22 20 17 21 21 24 26 25 23 21 19 19 14 12 14 14 12 13 15 17 20 21 24 25
37 42 21 52 47 45 44 40 25 17 16 7 8 4 14 23 22 23 24 23 21 19 19 19 16 16 16 18 20 25 26 24 19 17 18 18 18 13 15 20 22 26 26 27
40 31 32 37 49 42 33 25 30 21 17 12 13 3 9 10 16 18 22 22 22 21 22 20 18 16 14 11 20 20 19 20 19 21 19 18 16 18 20 23 23 25 28 30
37 24 35 37 29 34 28 25 16 17 14 8 19 14 11 9 16 20 18 21 18 15 18 17 17 19 21 19 16 20 23 23 23 21 20 21 22 24 22 23 25 28 28 32
32 26 28 29 27 34 27 33 6 4 6 5 18 15 6 13 16 20 18 17 16 14 17 14 18 22 22 23 23 18 20 22 24 24 24 25 27 26 27 28 28 29 33 33
29 26 30 34 38 33 37 35 11 6 5 4 17 14 11 19 11 17 19 16 16 14 15 13 13 14 16 26 27 23 23 26 28 27 26 27 27 27 30 31 32 36 34 32
28 19 37 25 36 35 45 36 24 6 9 12 9 7 17 21 16 13 12 13 16 15 14 13 11 12 15 18 25 26 26 30 29 28 27 26 25 27 28 29 32 34 37 38
12 16 36 23 33 32 46 43 30 9 5 5 5 12 14 17 17 14 12 12 14 15 14 11 7 9 13 14 17 21 23 27 27 25 20 21 25 28 30 28 30 28 33 25
14 9 22 29 21 35 32 33 32 14 4 5 5 3 15 18 17 17 17 16 14 12 9 6 7 10 9 9 10 13 15 17 17 16 18 19 16 20 18 16 14 12 14 18
18 13 8 24 28 38 19 35 31 15 4 3 5 5 25 23 23 20 19 16 13 11 10 10 11 12 12 12 13 13 13 12 12 15 15 17 20 14 14 14 15 16 18 18
23 13 11 18 16 34 28 22 36 12 14 12 6 8 30 26 25 21 15 17 16 13 12 11 12 14 14 12 10 9 9 11 11 12 14 13 14 16 17 19 21 23 25 27
16 16 10 4 19 39 36 27 27 26 17 10 7 29 31 29 25 22 18 15 15 14 13 13 13 13 11 9 6 3 1 4 8 11 13 16 20 23 25 27 28 29 30 31
18 14 15 17 24 36 32 26 27 32 17 23 19 33 31 28 25 20 19 18 17 15 14 14 13 12 11 8 5 2 3 8 13 18 22 25 29 30 29 29 28 29 30 31
9 18 25 28 27 26 27 23 22 27 27 14 23 26 30 27 23 21 21 20 16 16 13 15 15 13 9 5 3 5 11 16 21 19 20 22 24 24 25 27 29 31 32 34
16 18 24 10 23 18 17 19 22 27 28 22 25 23 31 26 26 24 23 19 14 14 15 13 12 9 5 3 6 11 15 22 23 22 24 25 26 26 27 30 31 33 34 34
14 17 12 17 23 3 11 20 28 27 26 25 26 29 34 30 30 29 25 18 17 17 15 12 10 7 7 11 14 18 22 27 25 27 27 28 28 30 32 33 33 33 32 30
9 13 8 7 7 8 11 18 24 31 17 18 25 25 28 31 29 29 26 24 22 20 17 13 13 12 14 19 23 24 29 33 31 31 31 32 32 32 32 31 30 28 26 21
8 15 10 12 6 3 9 21 20 25 22 19 20 22 29 32 30 28 27 26 20 20 16 14 15 19 21 24 26 31 33 33 33 35 34 33 33 32 29 26 23 21 17 14
8 8 11 15 6 4 17 20 24 15 19 22 18 21 24 25 19 15 18 25 26 18 18 19 26 23 23 27 31 31 33 35 37 35 33 31 28 26 23 18 15 13 10 10
8 6 11 7 6 5 22 26 18 15 11 25 27 20 16 15 21 21 15 16 16 19 21 21 19 22 26 29 31 34 35 36 35 32 27 23 20 18 15 9 10 8 7 3
5 5 10 7 7 17 23 19 18 23 15 23 21 24 19 16 15 11 9 9 11 13 15 18 22 25 27 29 31 32 32 32 26 18 14 13 12 8 9 9 7 5 4 2
18 19 23 19 19 17 23 21 21 28 25 26 24 22 16 12 16 10 8 9 12 15 18 20 23 25 27 28 28 25 22 18 12 11 10 9 7 5 7 7 5 3 2 1
16 23 25 34 27 31 30 29 29 25 30 31 26 21 16 11 7 7 9 11 13 15 17 20 21 23 22 23 22 17 12 12 9 8 9 10 11 7 9 8 6 4 4 4
20 38 38 41 28 33 36 33 29 24 22 18 13 10 8 8 7 6 8 10 13 15 17 17 17 15 13 13 11 10 9 7 8 8 9 11 8 9 10 9 9 7 6 7
Wind_Direction
213 212 217 221 221 218 227 223 232 239 231 230 236 247 242 236 232 214 212 225 236 241 235 221 215 205 202 206 206 208 209 214 222 245 254 266 266 292 282 286 288 281 282 291
206 218 225 222 220 220 214 217 214 197 203 230 243 251 242 233 235 228 222 224 221 242 227 235 228 218 208 214 210 211 211 221 235 231 234 252 271 278 291 290 291 285 277 277
211 229 218 219 219 216 218 216 212 210 220 239 248 262 245 232 237 234 227 225 221 227 224 222 230 228 220 220 220 223 219 218 228 238 243 257 267 284 288 285 281 280 278 279
228 223 213 218 219 215 214 214 210 211 218 219 210 276 244 236 238 236 232 224 207 210 216 219 217 216 224 218 209 222 223 225 232 247 245 247 248 254 270 271 272 277 278 285
220 222 213 217 219 215 214 210 210 208 221 239 223 212 235 221 218 204 203 203 205 211 216 217 223 221 214 214 219 220 220 223 233 247 252 252 248 257 275 269 266 262 274 288
219 236 206 220 213 210 206 198 191 209 223 244 233 208 223 231 192 191 196 202 209 218 214 214 211 206 221 217 203 216 222 229 244 253 253 252 258 263 267 266 268 265 271 281
209 201 209 212 198 195 184 168 134 167 191 217 205 194 175 187 182 183 182 183 192 195 201 211 218 225 224 220 222 222 228 234 245 253 254 254 257 264 271 267 260 262 271 273
192 203 197 197 193 183 181 175 160 154 153 152 175 184 194 223 207 186 183 197 191 206 215 228 212 216 225 227 225 226 228 234 243 251 253 260 266 272 266 262 261 267 270 272
192 204 192 192 194 184 189 195 178 113 151 136 171 164 187 199 205 184 178 201 219 227 227 224 206 214 222 223 226 218 223 233 243 249 254 265 273 272 276 279 281 279 274 272
169 165 185 168 183 186 188 187 183 209 147 126 193 169 169 165 167 166 183 199 202 204 205 211 226 220 222 223 222 222 228 237 244 255 260 271 278 279 282 284 284 285 282 280
158 150 168 177 183 182 175 176 183 196 166 142 139 195 171 163 165 168 173 176 182 180 182 200 195 193 188 187 199 217 226 233 242 255 264 270 280 295 293 292 298 296 299 291
168 186 162 194 192 178 165 180 187 180 153 159 128 152 160 165 160 162 165 165 170 178 182 178 182 188 196 205 202 209 214 230 248 261 270 277 292 296 290 291 295 296 295 293
172 160 134 125 170 196 199 170 193 182 193 179 140 157 166 165 162 165 173 167 164 165 166 172 178 180 188 197 203 218 237 254 261 268 275 282 292 292 292 293 291 290 290 289
162 164 187 167 175 177 194 186 184 206 202 174 162 157 172 167 173 176 167 176 176 175 181 189 189 187 196 203 199 192 243 295 293 289 289 288 285 284 284 284 286 289 289 288
178 168 150 142 153 164 178 180 194 202 193 192 158 163 168 177 181 187 184 184 173 168 171 169 173 161 158 149 140 150 280 290 296 296 294 290 286 285 288 293 297 296 296 295
131 137 145 139 149 164 174 186 201 195 204 173 168 167 177 177 182 187 189 185 175 169 171 166 161 158 155 158 205 282 305 311 311 305 299 295 295 296 297 298 297 298 298 297
112 121 137 121 146 150 154 186 191 196 200 198 189 189 179 181 187 197 196 191 194 192 186 188 181 180 193 231 276 305 309 313 309 299 301 301 296 297 298 297 302 303 302 302
142 121 107 134 153 120 162 188 192 193 182 183 185 180 180 190 197 196 192 200 205 206 205 207 213 229 255 283 283 295 300 312 304 300 300 297 298 300 299 300 300 300 299 303
144 158 103 120 95 140 150 169 171 183 152 176 180 183 189 192 190 181 188 197 209 210 210 221 241 263 285 291 293 297 305 305 301 300 296 300 301 298 296 296 295 297 300 304
150 155 126 146 97 174 182 170 170 175 143 169 191 192 189 193 187 189 187 198 211 216 215 233 260 272 281 291 300 300 297 297 300 299 302 300 298 296 293 293 296 298 302 306
168 160 144 151 105 113 155 166 175 187 182 172 174 185 181 189 195 192 196 206 206 211 235 250 265 274 285 295 293 296 301 301 299 300 299 297 294 290 289 295 295 296 310 325
166 139 138 129 109 113 161 166 182 167 156 174 160 165 187 186 190 192 192 213 233 238 247 257 279 292 294 294 300 300 299 297 299 302 297 290 286 286 294 294 292 302 340 5
121 128 137 131 124 148 169 166 154 166 173 181 186 170 168 174 175 170 186 219 248 264 279 287 287 288 291 293 294 296 299 301 304 304 302 303 304 306 295 292 294 321 3 73
126 135 128 115 115 140 155 152 152 150 163 167 159 160 161 175 179 180 208 240 258 269 275 279 284 289 292 292 294 294 297 298 303 307 323 335 326 283 288 291 301 322 25 193
135 143 138 129 116 129 130 135 143 148 137 147 155 162 163 173 194 227 245 259 269 276 283 287 289 290 291 292 292 295 297 297 296 289 288 294 280 303 296 300 302 316 318 245
129 132 135 132 127 130 122 119 123 131 135 146 152 154 176 199 215 240 267 277 281 284 286 287 286 289 299 307 311 314 311 305 322 311 284 278 275 264 300 291 295 302 298 252
Height
2992 2997 2987 2996 3009 3020 3027 3032 3035 3040 3048 3052 3056 3060 3065 3069 3073 3076 3081 3085 3089 3093 3098 3102 3106 3109 3114 3118 3122 3125 3128 3129 3131 3133 3134 3136 3137 3139 3141 3140 3140 3140 3141 3139
2987 2974 2988 3002 3009 3015 3024 3027 3033 3039 3044 3049 3052 3056 3060 3064 3067 3072 3076 3080 3084 3088 3091 3095 3100 3104 3108 3113 3117 3120 3124 3126 3127 3127 3130 3132 3133 3134 3135 3135 3136 3137 3136 3136
2971 2984 2985 2996 3002 3009 3014 3021 3028 3037 3043 3046 3048 3050 3054 3059 3062 3066 3070 3074 3079 3083 3087 3090 3094 3099 3103 3107 3112 3116 3119 3120 3122 3123 3125 3127 3128 3129 3130 3130 3131 3131 3129 3129
2973 2978 2981 2987 2993 3003 3010 3019 3028 3035 3041 3044 3046 3046 3047 3052 3056 3059 3065 3069 3074 3077 3082 3086 3089 3094 3098 3102 3104 3108 3111 3114 3116 3117 3119 3121 3123 3123 3124 3125 3125 3125 3125 3123
2960 2969 2979 2982 2987 3001 3008 3017 3025 3034 3038 3042 3042 3045 3044 3047 3050 3056 3060 3064 3068 3073 3078 3081 3086 3091 3094 3096 3100 3103 3106 3109 3111 3112 3113 3116 3118 3118 3118 3120 3120 3120 3120 3118
2962 2967 2977 2977 2988 2998 3007 3018 3027 3033 3038 3037 3037 3043 3040 3044 3047 3051 3057 3062 3065 3069 3074 3078 3081 3084 3088 3091 3095 3098 3101 3103 3107 3109 3110 3112 3112 3113 3114 3114 3113 3112 3111 3110
2956 2963 2969 2977 2986 2997 3004 3011 3022 3034 3035 3030 3029 3040 3037 3041 3045 3050 3055 3060 3062 3066 3071 3074 3076 3080 3083 3086 3090 3093 3096 3099 3102 3104 3106 3107 3108 3108 3108 3107 3107 3106 3105 3104
2950 2960 2962 2968 2973 2979 2993 3000 3004 3017 3024 3027 3031 3031 3033 3038 3042 3048 3052 3057 3059 3063 3066 3070 3072 3074 3077 3081 3084 3087 3090 3093 3096 3098 3100 3101 3103 3103 3103 3103 3103 3101 3100 3098
2943 2950 2957 2963 2971 2979 2989 2995 3003 3008 3014 3023 3027 3029 3032 3034 3040 3045 3050 3054 3056 3059 3062 3065 3068 3071 3074 3077 3080 3083 3086 3089 3092 3094 3097 3098 3099 3100 3099 3098 3096 3094 3092 3091
2936 2947 2951 2960 2971 2979 2978 2991 3003 3005 3012 3021 3023 3025 3026 3032 3037 3042 3047 3051 3053 3056 3059 3062 3065 3068 3071 3074 3077 3080 3083 3086 3089 3091 3093 3094 3094 3093 3091 3090 3088 3086 3084 3082
2937 2940 2951 2958 2961 2968 2980 2986 2997 3003 3004 3010 3022 3025 3026 3030 3035 3039 3045 3049 3052 3054 3058 3061 3064 3067 3070 3073 3075 3078 3081 3084 3086 3087 3088 3089 3089 3089 3087 3086 3084 3081 3080 3079
2938 2944 2949 2954 2959 2969 2976 2984 2991 2996 3003 3005 3009 3023 3024 3030 3035 3039 3043 3046 3050 3053 3056 3059 3062 3065 3067 3071 3073 3076 3079 3081 3082 3083 3084 3084 3083 3082 3081 3081 3078 3077 3076 3074
2938 2942 2946 2955 2963 2966 2973 2981 2988 2995 2999 3002 3008 3020 3022 3029 3033 3038 3042 3045 3048 3052 3055 3057 3060 3063 3065 3069 3071 3073 3076 3078 3079 3080 3080 3079 3079 3079 3078 3077 3076 3074 3072 3070
2937 2940 2942 2943 2942 2954 2969 2977 2986 2994 2998 3001 3004 3011 3019 3025 3032 3036 3040 3044 3047 3051 3054 3057 3060 3062 3065 3068 3070 3072 3074 3075 3076 3076 3075 3075 3075 3074 3074 3073 3070 3067 3065 3063
2935 2940 2943 2945 2951 2960 2969 2977 2985 2991 2996 3001 3005 3008 3015 3023 3029 3033 3038 3043 3047 3051 3054 3056 3059 3062 3065 3067 3069 3071 3073 3074 3074 3072 3071 3071 3070 3068 3066 3063 3060 3058 3056 3053
2932 2939 2944 2950 2957 2964 2971 2978 2984 2989 2995 2999 3004 3010 3015 3022 3028 3032 3036 3041 3046 3051 3055 3057 3059 3061 3064 3066 3068 3070 3070 3070 3070 3069 3069 3067 3065 3062 3059 3057 3054 3051 3048 3044
2932 2939 2947 2956 2960 2964 2973 2977 2981 2987 2993 2998 3003 3009 3014 3021 3026 3030 3035 3040 3046 3051 3054 3056 3058 3061 3063 3065 3066 3066 3067 3067 3065 3064 3062 3060 3058 3055 3053 3050 3047 3043 3039 3036
2940 2942 2948 2958 2963 2971 2974 2976 2981 2986 2992 2996 3001 3006 3012 3017 3021 3028 3035 3040 3045 3049 3052 3054 3058 3060 3062 3063 3064 3063 3062 3061 3060 3058 3056 3054 3051 3049 3046 3043 3039 3036 3033 3031
2945 2948 2954 2960 2966 2972 2973 2976 2980 2984 2993 2996 3000 3006 3010 3016 3023 3029 3034 3039 3044 3047 3051 3054 3056 3058 3059 3059 3059 3057 3055 3054 3052 3051 3049 3045 3043 3042 3039 3036 3033 3030 3028 3026
2948 2951 2955 2961 2966 2972 2973 2977 2981 2985 2993 2997 3003 3005 3009 3016 3022 3028 3033 3039 3043 3046 3049 3051 3054 3054 3055 3054 3052 3051 3050 3047 3044 3042 3039 3037 3035 3033 3031 3028 3026 3024 3023 3022
2951 2953 2958 2961 2966 2971 2973 2978 2982 2987 2996 2997 3003 3010 3015 3019 3028 3031 3035 3038 3040 3045 3048 3050 3051 3051 3051 3049 3048 3045 3040 3038 3036 3034 3031 3029 3027 3026 3024 3022 3022 3020 3019 3018
2952 2954 2959 2963 2966 2972 2974 2979 2985 2989 2992 2998 3003 3011 3017 3024 3028 3031 3035 3039 3042 3044 3045 3047 3047 3045 3045 3043 3038 3036 3035 3033 3030 3026 3024 3022 3021 3019 3018 3018 3018 3017 3017 3015
2952 2955 2957 2962 2967 2970 2975 2980 2983 2990 2997 3002 3008 3014 3020 3025 3029 3032 3036 3039 3040 3041 3041 3041 3041 3040 3038 3035 3033 3032 3029 3026 3022 3020 3018 3017 3016 3016 3017 3016 3016 3015 3015 3015
2953 2955 2958 2965 2969 2971 2978 2983 2988 2993 2999 3003 3008 3016 3020 3026 3028 3033 3035 3037 3038 3038 3038 3038 3036 3034 3032 3030 3028 3024 3022 3021 3019 3018 3016 3015 3015 3014 3014 3014 3014 3013 3014 3014
2955 2958 2961 2966 2973 2975 2979 2984 2991 2996 3002 3006 3014 3018 3023 3027 3029 3032 3034 3035 3035 3035 3034 3033 3031 3029 3027 3025 3023 3020 3017 3017 3016 3015 3015 3014 3013 3012 3012 3011 3011 3012 3012 3012
2959 2960 2966 2971 2977 2982 2985 2991 2997 3003 3008 3014 3018 3022 3025 3028 3029 3030 3031 3031 3031 3030 3029 3028 3026 3024 3023 3020 3018 3016 3015 3015 3013 3011 3011 3010 3010 3010 3010 3009 3009 3010 3010 3009